﻿測定場所 (Monitoring sites),日付 (Measurement date),時間 (Measurement time),線量率 最大値 (max) μGy/h,線量率 最小値 (min) μGy/h,線量率 平均値 (average) μGy/h,
江戸川 (Edogawa),2016-06-26,23:01～24:00,0.0603,0.0520,0.0570,
江戸川 (Edogawa),2016-06-26,22:01～23:00,0.0608,0.0538,0.0573,
江戸川 (Edogawa),2016-06-26,21:01～22:00,0.0602,0.0537,0.0570,
江戸川 (Edogawa),2016-06-26,20:01～21:00,0.0598,0.0545,0.0574,
江戸川 (Edogawa),2016-06-26,19:01～20:00,0.0607,0.0528,0.0572,
江戸川 (Edogawa),2016-06-26,18:01～19:00,0.0591,0.0540,0.0569,
江戸川 (Edogawa),2016-06-26,17:01～18:00,0.0599,0.0537,0.0572,
江戸川 (Edogawa),2016-06-26,16:01～17:00,0.0611,0.0532,0.0570,
江戸川 (Edogawa),2016-06-26,15:01～16:00,0.0603,0.0534,0.0570,
江戸川 (Edogawa),2016-06-26,14:01～15:00,0.0601,0.0533,0.0570,
江戸川 (Edogawa),2016-06-26,13:01～14:00,0.0601,0.0534,0.0571,
江戸川 (Edogawa),2016-06-26,12:01～13:00,0.0599,0.0536,0.0565,
江戸川 (Edogawa),2016-06-26,11:01～12:00,0.0601,0.0532,0.0570,
江戸川 (Edogawa),2016-06-26,10:01～11:00,0.0602,0.0516,0.0567,
江戸川 (Edogawa),2016-06-26,09:01～10:00,0.0605,0.0538,0.0566,
江戸川 (Edogawa),2016-06-26,08:01～09:00,0.0600,0.0536,0.0569,
江戸川 (Edogawa),2016-06-26,07:01～08:00,0.0595,0.0537,0.0568,
江戸川 (Edogawa),2016-06-26,06:01～07:00,0.0610,0.0526,0.0565,
江戸川 (Edogawa),2016-06-26,05:01～06:00,0.0595,0.0530,0.0565,
江戸川 (Edogawa),2016-06-26,04:01～05:00,0.0607,0.0534,0.0572,
江戸川 (Edogawa),2016-06-26,03:01～04:00,0.0608,0.0543,0.0573,
江戸川 (Edogawa),2016-06-26,02:01～03:00,0.0599,0.0529,0.0565,
江戸川 (Edogawa),2016-06-26,01:01～02:00,0.0604,0.0529,0.0562,
江戸川 (Edogawa),2016-06-26,00:01～01:00,0.0611,0.0534,0.0566,
江戸川 (Edogawa),2016-06-25,23:01～24:00,0.0608,0.0517,0.0566,
江戸川 (Edogawa),2016-06-25,22:01～23:00,0.0591,0.0526,0.0565,
江戸川 (Edogawa),2016-06-25,21:01～22:00,0.0594,0.0521,0.0563,
江戸川 (Edogawa),2016-06-25,20:01～21:00,0.0601,0.0532,0.0562,
江戸川 (Edogawa),2016-06-25,19:01～20:00,0.0600,0.0538,0.0563,
江戸川 (Edogawa),2016-06-25,18:01～19:00,0.0591,0.0538,0.0564,
江戸川 (Edogawa),2016-06-25,17:01～18:00,0.0602,0.0531,0.0562,
江戸川 (Edogawa),2016-06-25,16:01～17:00,0.0599,0.0524,0.0563,
江戸川 (Edogawa),2016-06-25,15:01～16:00,0.0593,0.0529,0.0564,
江戸川 (Edogawa),2016-06-25,14:01～15:00,0.0590,0.0527,0.0564,
江戸川 (Edogawa),2016-06-25,13:01～14:00,0.0580,0.0526,0.0557,
江戸川 (Edogawa),2016-06-25,12:01～13:00,0.0591,0.0521,0.0560,
江戸川 (Edogawa),2016-06-25,11:01～12:00,0.0599,0.0531,0.0560,
江戸川 (Edogawa),2016-06-25,10:01～11:00,0.0592,0.0522,0.0560,
江戸川 (Edogawa),2016-06-25,09:01～10:00,0.0597,0.0510,0.0559,
江戸川 (Edogawa),2016-06-25,08:01～09:00,0.0595,0.0529,0.0566,
江戸川 (Edogawa),2016-06-25,07:01～08:00,0.0655,0.0547,0.0602,
江戸川 (Edogawa),2016-06-25,06:01～07:00,0.0694,0.0609,0.0649,
江戸川 (Edogawa),2016-06-25,05:01～06:00,0.0681,0.0557,0.0614,
江戸川 (Edogawa),2016-06-25,04:01～05:00,0.0586,0.0516,0.0556,
江戸川 (Edogawa),2016-06-25,03:01～04:00,0.0579,0.0516,0.0551,
江戸川 (Edogawa),2016-06-25,02:01～03:00,0.0591,0.0523,0.0557,
江戸川 (Edogawa),2016-06-25,01:01～02:00,0.0603,0.0534,0.0565,
江戸川 (Edogawa),2016-06-25,00:01～01:00,0.0620,0.0540,0.0581,
江戸川 (Edogawa),2016-06-24,23:01～24:00,0.0718,0.0560,0.0640,
江戸川 (Edogawa),2016-06-24,22:01～23:00,0.0753,0.0611,0.0674,
江戸川 (Edogawa),2016-06-24,21:01～22:00,0.0632,0.0537,0.0572,
江戸川 (Edogawa),2016-06-24,20:01～21:00,0.0606,0.0530,0.0572,
江戸川 (Edogawa),2016-06-24,19:01～20:00,0.0656,0.0558,0.0613,
江戸川 (Edogawa),2016-06-24,18:01～19:00,0.0735,0.0606,0.0675,
江戸川 (Edogawa),2016-06-24,17:01～18:00,0.0651,0.0571,0.0607,
江戸川 (Edogawa),2016-06-24,16:01～17:00,0.0619,0.0533,0.0573,
江戸川 (Edogawa),2016-06-24,15:01～16:00,0.0593,0.0537,0.0560,
江戸川 (Edogawa),2016-06-24,14:01～15:00,0.0612,0.0526,0.0562,
江戸川 (Edogawa),2016-06-24,13:01～14:00,0.0596,0.0532,0.0561,
江戸川 (Edogawa),2016-06-24,12:01～13:00,0.0585,0.0510,0.0557,
江戸川 (Edogawa),2016-06-24,11:01～12:00,0.0604,0.0518,0.0559,
江戸川 (Edogawa),2016-06-24,10:01～11:00,0.0597,0.0520,0.0561,
江戸川 (Edogawa),2016-06-24,09:01～10:00,0.0601,0.0509,0.0556,
江戸川 (Edogawa),2016-06-24,08:01～09:00,0.0591,0.0523,0.0557,
江戸川 (Edogawa),2016-06-24,07:01～08:00,0.0594,0.0523,0.0557,
江戸川 (Edogawa),2016-06-24,06:01～07:00,0.0591,0.0525,0.0557,
江戸川 (Edogawa),2016-06-24,05:01～06:00,0.0592,0.0524,0.0555,
江戸川 (Edogawa),2016-06-24,04:01～05:00,0.0588,0.0522,0.0556,
江戸川 (Edogawa),2016-06-24,03:01～04:00,0.0583,0.0528,0.0555,
江戸川 (Edogawa),2016-06-24,02:01～03:00,0.0593,0.0525,0.0556,
江戸川 (Edogawa),2016-06-24,01:01～02:00,0.0589,0.0516,0.0554,
江戸川 (Edogawa),2016-06-24,00:01～01:00,0.0594,0.0526,0.0556,
江戸川 (Edogawa),2016-06-23,23:01～24:00,0.0589,0.0523,0.0557,
江戸川 (Edogawa),2016-06-23,22:01～23:00,0.0594,0.0521,0.0555,
江戸川 (Edogawa),2016-06-23,21:01～22:00,0.0592,0.0520,0.0554,
江戸川 (Edogawa),2016-06-23,20:01～21:00,0.0597,0.0535,0.0558,
江戸川 (Edogawa),2016-06-23,19:01～20:00,0.0581,0.0508,0.0552,
江戸川 (Edogawa),2016-06-23,18:01～19:00,0.0600,0.0520,0.0558,
江戸川 (Edogawa),2016-06-23,17:01～18:00,0.0590,0.0523,0.0558,
江戸川 (Edogawa),2016-06-23,16:01～17:00,0.0596,0.0534,0.0564,
江戸川 (Edogawa),2016-06-23,15:01～16:00,0.0602,0.0523,0.0565,
江戸川 (Edogawa),2016-06-23,14:01～15:00,0.0604,0.0533,0.0568,
江戸川 (Edogawa),2016-06-23,13:01～14:00,0.0603,0.0532,0.0568,
江戸川 (Edogawa),2016-06-23,12:01～13:00,0.0600,0.0539,0.0563,
江戸川 (Edogawa),2016-06-23,11:01～12:00,0.0622,0.0521,0.0573,
江戸川 (Edogawa),2016-06-23,10:01～11:00,0.0636,0.0540,0.0583,
江戸川 (Edogawa),2016-06-23,09:01～10:00,0.0644,0.0552,0.0594,
江戸川 (Edogawa),2016-06-23,08:01～09:00,0.0694,0.0602,0.0642,
江戸川 (Edogawa),2016-06-23,07:01～08:00,0.0719,0.0632,0.0665,
江戸川 (Edogawa),2016-06-23,06:01～07:00,0.0688,0.0612,0.0649,
江戸川 (Edogawa),2016-06-23,05:01～06:00,0.0718,0.0627,0.0671,
江戸川 (Edogawa),2016-06-23,04:01～05:00,0.0715,0.0608,0.0657,
江戸川 (Edogawa),2016-06-23,03:01～04:00,0.0651,0.0573,0.0613,
江戸川 (Edogawa),2016-06-23,02:01～03:00,0.0637,0.0566,0.0600,
江戸川 (Edogawa),2016-06-23,01:01～02:00,0.0619,0.0563,0.0595,
江戸川 (Edogawa),2016-06-23,00:01～01:00,0.0633,0.0567,0.0594,
江戸川 (Edogawa),2016-06-22,23:01～24:00,0.0616,0.0553,0.0585,
江戸川 (Edogawa),2016-06-22,22:01～23:00,0.0619,0.0526,0.0572,
江戸川 (Edogawa),2016-06-22,21:01～22:00,0.0600,0.0544,0.0571,
江戸川 (Edogawa),2016-06-22,20:01～21:00,0.0602,0.0533,0.0565,
江戸川 (Edogawa),2016-06-22,19:01～20:00,0.0598,0.0529,0.0562,
江戸川 (Edogawa),2016-06-22,18:01～19:00,0.0599,0.0513,0.0564,
江戸川 (Edogawa),2016-06-22,17:01～18:00,0.0583,0.0530,0.0563,
江戸川 (Edogawa),2016-06-22,16:01～17:00,0.0587,0.0528,0.0560,
江戸川 (Edogawa),2016-06-22,15:01～16:00,0.0591,0.0536,0.0566,
江戸川 (Edogawa),2016-06-22,14:01～15:00,0.0591,0.0514,0.0563,
江戸川 (Edogawa),2016-06-22,13:01～14:00,0.0591,0.0525,0.0562,
江戸川 (Edogawa),2016-06-22,12:01～13:00,0.0611,0.0540,0.0566,
江戸川 (Edogawa),2016-06-22,11:01～12:00,0.0597,0.0534,0.0570,
江戸川 (Edogawa),2016-06-22,10:01～11:00,0.0617,0.0552,0.0580,
江戸川 (Edogawa),2016-06-22,09:01～10:00,0.0593,0.0535,0.0564,
江戸川 (Edogawa),2016-06-22,08:01～09:00,0.0594,0.0534,0.0567,
江戸川 (Edogawa),2016-06-22,07:01～08:00,0.0594,0.0536,0.0562,
江戸川 (Edogawa),2016-06-22,06:01～07:00,0.0594,0.0530,0.0560,
江戸川 (Edogawa),2016-06-22,05:01～06:00,0.0596,0.0536,0.0561,
江戸川 (Edogawa),2016-06-22,04:01～05:00,0.0611,0.0536,0.0566,
江戸川 (Edogawa),2016-06-22,03:01～04:00,0.0597,0.0521,0.0560,
江戸川 (Edogawa),2016-06-22,02:01～03:00,0.0600,0.0532,0.0563,
江戸川 (Edogawa),2016-06-22,01:01～02:00,0.0599,0.0517,0.0558,
江戸川 (Edogawa),2016-06-22,00:01～01:00,0.0595,0.0518,0.0562,
江戸川 (Edogawa),2016-06-21,23:01～24:00,0.0598,0.0528,0.0563,
江戸川 (Edogawa),2016-06-21,22:01～23:00,0.0595,0.0527,0.0562,
江戸川 (Edogawa),2016-06-21,21:01～22:00,0.0606,0.0535,0.0564,
江戸川 (Edogawa),2016-06-21,20:01～21:00,0.0598,0.0528,0.0568,
江戸川 (Edogawa),2016-06-21,19:01～20:00,0.0600,0.0508,0.0562,
江戸川 (Edogawa),2016-06-21,18:01～19:00,0.0591,0.0524,0.0561,
江戸川 (Edogawa),2016-06-21,17:01～18:00,0.0590,0.0526,0.0559,
江戸川 (Edogawa),2016-06-21,16:01～17:00,0.0597,0.0516,0.0563,
江戸川 (Edogawa),2016-06-21,15:01～16:00,0.0602,0.0537,0.0563,
江戸川 (Edogawa),2016-06-21,14:01～15:00,0.0622,0.0531,0.0568,
江戸川 (Edogawa),2016-06-21,13:01～14:00,0.0614,0.0552,0.0582,
江戸川 (Edogawa),2016-06-21,12:01～13:00,0.0656,0.0582,0.0619,
江戸川 (Edogawa),2016-06-21,11:01～12:00,0.0663,0.0596,0.0626,
江戸川 (Edogawa),2016-06-21,10:01～11:00,0.0648,0.0574,0.0610,
江戸川 (Edogawa),2016-06-21,09:01～10:00,0.0655,0.0590,0.0622,
江戸川 (Edogawa),2016-06-21,08:01～09:00,0.0642,0.0579,0.0605,
江戸川 (Edogawa),2016-06-21,07:01～08:00,0.0625,0.0542,0.0587,
江戸川 (Edogawa),2016-06-21,06:01～07:00,0.0599,0.0537,0.0571,
江戸川 (Edogawa),2016-06-21,05:01～06:00,0.0603,0.0538,0.0571,
江戸川 (Edogawa),2016-06-21,04:01～05:00,0.0610,0.0540,0.0571,
江戸川 (Edogawa),2016-06-21,03:01～04:00,0.0602,0.0535,0.0571,
江戸川 (Edogawa),2016-06-21,02:01～03:00,0.0599,0.0531,0.0568,
江戸川 (Edogawa),2016-06-21,01:01～02:00,0.0595,0.0532,0.0567,
江戸川 (Edogawa),2016-06-21,00:01～01:00,0.0596,0.0520,0.0565,
江戸川 (Edogawa),2016-06-20,23:01～24:00,0.0597,0.0519,0.0569,
江戸川 (Edogawa),2016-06-20,22:01～23:00,0.0610,0.0532,0.0566,
江戸川 (Edogawa),2016-06-20,21:01～22:00,0.0607,0.0533,0.0567,
江戸川 (Edogawa),2016-06-20,20:01～21:00,0.0595,0.0538,0.0567,
江戸川 (Edogawa),2016-06-20,19:01～20:00,0.0601,0.0539,0.0571,
江戸川 (Edogawa),2016-06-20,18:01～19:00,0.0594,0.0530,0.0568,
江戸川 (Edogawa),2016-06-20,17:01～18:00,0.0611,0.0543,0.0571,
江戸川 (Edogawa),2016-06-20,16:01～17:00,0.0604,0.0540,0.0570,
江戸川 (Edogawa),2016-06-20,15:01～16:00,0.0615,0.0531,0.0570,
江戸川 (Edogawa),2016-06-20,14:01～15:00,0.0597,0.0540,0.0570,
江戸川 (Edogawa),2016-06-20,13:01～14:00,0.0610,0.0534,0.0572,
江戸川 (Edogawa),2016-06-20,12:01～13:00,0.0596,0.0534,0.0564,
江戸川 (Edogawa),2016-06-20,11:01～12:00,0.0588,0.0532,0.0563,
江戸川 (Edogawa),2016-06-20,10:01～11:00,0.0584,0.0525,0.0563,
江戸川 (Edogawa),2016-06-20,09:01～10:00,0.0609,0.0523,0.0559,
江戸川 (Edogawa),2016-06-20,08:01～09:00,0.0598,0.0531,0.0560,
江戸川 (Edogawa),2016-06-20,07:01～08:00,0.0611,0.0531,0.0563,
江戸川 (Edogawa),2016-06-20,06:01～07:00,0.0601,0.0533,0.0560,
江戸川 (Edogawa),2016-06-20,05:01～06:00,0.0599,0.0526,0.0561,
江戸川 (Edogawa),2016-06-20,04:01～05:00,0.0587,0.0537,0.0564,
江戸川 (Edogawa),2016-06-20,03:01～04:00,0.0610,0.0532,0.0575,
江戸川 (Edogawa),2016-06-20,02:01～03:00,0.0628,0.0556,0.0594,
江戸川 (Edogawa),2016-06-20,01:01～02:00,0.0663,0.0580,0.0620,
江戸川 (Edogawa),2016-06-20,00:01～01:00,0.0685,0.0585,0.0635,
